[[{"header":{"parameterUnit":"m.s-1","parameterCategory":2,"la1":30.2992,"la2":30.254,"lo1":-89.0895,"lo2":-89.0443,"dy":0.0025,"dx":0.0025,"nx":19,"ny":19,"refTime":"2026-05-13T03:00:00:Z","depth":"0","parameterNumber":2,"parameterNumberName":"U-component_of_CURRENTS"},"data":[0,0,0,-0.1233,-0.1235,-0.1307,-0.1307,-0.1362,-0.1363,0,0,0,0,0,0,0,0,0,0,0,-0.1207,-0.1207,-0.1233,-0.1235,-0.1307,-0.1307,-0.1362,-0.1363,0,0,0,0,0,0,0,0,0,0,0,-0.1207,-0.1207,-0.1208,-0.1235,-0.1307,-0.1307,-0.1362,-0.1318,0,0,0,0,0,0,0,0,0,0,-0.1253,-0.1233,-0.1207,-0.1208,-0.1235,-0.1306,-0.1307,-0.1316,-0.1321,-0.1318,0,-0.1329,0,-0.1345,-0.1365,-0.1365,0,0,0,-0.1238,-0.123,-0.1248,-0.1208,-0.1236,-0.1306,-0.1275,-0.1319,-0.1324,-0.1324,-0.133,-0.1332,-0.1346,-0.1365,-0.1366,-0.1412,-0.1412,0,0,-0.1234,-0.1222,-0.1245,-0.1251,-0.1253,-0.1273,-0.1277,-0.1322,-0.1327,-0.133,-0.1334,-0.1347,-0.1366,-0.1366,-0.1412,-0.1412,0,0,0,-0.122,-0.1219,-0.1237,-0.1248,-0.1264,-0.1275,-0.128,-0.1325,-0.133,-0.1334,-0.1348,-0.1366,-0.1366,-0.1412,-0.1412,-0.1414,0,0,0,-0.1218,-0.121,-0.1235,-0.1228,-0.1263,-0.13,-0.1281,-0.1327,-0.1333,-0.1348,-0.1366,-0.1367,-0.1412,-0.1412,-0.1413,-0.14,0,0,0,-0.1204,-0.1209,-0.1217,-0.1227,-0.1257,-0.13,-0.1309,-0.1329,-0.1341,-0.1365,-0.1367,-0.1411,-0.1412,-0.1413,-0.1399,-0.1378,0,0,0,-0.1189,-0.1232,-0.1216,-0.1269,-0.1256,-0.1318,-0.1309,-0.1352,-0.1375,-0.1366,-0.1412,-0.1412,-0.1413,-0.1399,-0.1378,-0.1379,-0.1378,0,0,-0.1242,-0.1237,-0.1271,-0.126,-0.1319,-0.1308,-0.1359,-0.1378,-0.138,-0.1394,-0.1396,-0.1414,-0.1399,-0.1378,-0.141,-0.1408,0,0,0,-0.1288,-0.1302,-0.1322,-0.1346,-0.1376,-0.138,-0.1399,-0.1398,-0.1409,-0.1395,-0.1424,-0.1415,-0.1401,-0.1403,-0.1402,-0.1344,-0.1415,-0.1415,-0.1414,-0.1325,-0.1341,-0.1378,-0.1393,-0.1419,-0.143,-0.1433,-0.1428,-0.1435,-0.1435,-0.1425,-0.142,-0.1424,-0.1423,-0.1364,-0.1442,-0.1442,-0.1442,-0.1442,-0.137,-0.1375,-0.1385,-0.1423,-0.1419,-0.1443,-0.1446,-0.1441,-0.1429,-0.1437,-0.1424,-0.1416,-0.1421,-0.1359,-0.1443,-0.1443,-0.1443,-0.1443,-0.1443,-0.1361,-0.1361,-0.1382,-0.1401,-0.1408,-0.1422,-0.1413,-0.1416,-0.1419,-0.1411,-0.1399,-0.1399,-0.1334,-0.1402,-0.1401,-0.1401,-0.1401,-0.1401,-0.1401,-0.1325,-0.1348,-0.1351,-0.1371,-0.1366,-0.1367,-0.1381,-0.1383,-0.1386,-0.139,-0.139,-0.1329,-0.1407,-0.1397,-0.1399,-0.1399,-0.1399,-0.14,-0.14,-0.1292,-0.1307,-0.1303,-0.1301,-0.1295,-0.1272,-0.1319,-0.1347,-0.1351,-0.1354,-0.1298,-0.1377,-0.1369,-0.137,-0.1359,-0.1351,-0.1351,-0.1351,-0.1351,-0.1256,-0.1269,-0.1243,-0.1223,-0.1211,-0.122,-0.1217,-0.1258,-0.1271,-0.1242,-0.1245,-0.1256,-0.1261,-0.1246,-0.125,-0.1237,-0.1198,-0.1198,-0.1197,-0.1217,-0.122,-0.1176,-0.1175,-0.1159,-0.1163,-0.1134,-0.1141,-0.1164,-0.1184,-0.1161,-0.1168,-0.1179,-0.1191,-0.1165,-0.1176,-0.1155,0,0]},{"header":{"parameterUnit":"m.s-1","parameterCategory":2,"la1":30.2992,"la2":30.254,"lo1":-89.0895,"lo2":-89.0443,"dy":0.0025,"dx":0.0025,"nx":19,"ny":19,"refTime":"2026-05-13T03:00:00:Z","depth":"0","parameterNumber":3,"parameterNumberName":"V-component_of_CURRENTS"},"data":[0,0,0,-0.0694,-0.0696,-0.0779,-0.0779,-0.0758,-0.0757,0,0,0,0,0,0,0,0,0,0,0,-0.0664,-0.0665,-0.0694,-0.0696,-0.0779,-0.0779,-0.0758,-0.0757,0,0,0,0,0,0,0,0,0,0,0,-0.0663,-0.0665,-0.0666,-0.0697,-0.0779,-0.0779,-0.0758,-0.0724,0,0,0,0,0,0,0,0,0,0,-0.0659,-0.0635,-0.0664,-0.0666,-0.0697,-0.0779,-0.0779,-0.0724,-0.0726,-0.0687,0,-0.0713,0,-0.0738,-0.0754,-0.0754,0,0,0,-0.0685,-0.0633,-0.0676,-0.0666,-0.0698,-0.0779,-0.0739,-0.0726,-0.0729,-0.069,-0.0713,-0.0714,-0.0737,-0.0754,-0.0753,-0.0697,-0.0697,0,0,-0.0681,-0.0653,-0.0675,-0.0679,-0.0734,-0.0736,-0.0741,-0.0729,-0.0722,-0.0713,-0.0714,-0.0737,-0.0753,-0.0753,-0.0697,-0.0697,0,0,0,-0.0675,-0.0649,-0.0695,-0.0678,-0.0706,-0.0739,-0.0745,-0.0722,-0.0744,-0.0714,-0.0737,-0.0753,-0.0752,-0.0697,-0.0697,-0.069,0,0,0,-0.0672,-0.0647,-0.0693,-0.0673,-0.0707,-0.0728,-0.0737,-0.0745,-0.0745,-0.0737,-0.0753,-0.0752,-0.0698,-0.0697,-0.0691,-0.0682,0,0,0,-0.0658,-0.0645,-0.0665,-0.0672,-0.0716,-0.073,-0.075,-0.0746,-0.0758,-0.0754,-0.0752,-0.0698,-0.0697,-0.0691,-0.0683,-0.0659,0,0,0,-0.0611,-0.0642,-0.0664,-0.0696,-0.0716,-0.076,-0.0751,-0.0769,-0.0768,-0.0753,-0.0698,-0.0697,-0.0692,-0.0684,-0.066,-0.0646,-0.0641,0,0,-0.0627,-0.0643,-0.0664,-0.0686,-0.0726,-0.0747,-0.0752,-0.0748,-0.0739,-0.0691,-0.0691,-0.069,-0.0683,-0.0659,-0.0612,-0.0608,0,0,0,-0.0653,-0.0665,-0.0683,-0.0709,-0.0746,-0.0747,-0.0756,-0.0742,-0.0713,-0.074,-0.068,-0.0675,-0.0661,-0.0655,-0.0651,-0.0575,-0.0694,-0.0694,-0.0694,-0.061,-0.0646,-0.0667,-0.0707,-0.0724,-0.0737,-0.0728,-0.0702,-0.0703,-0.0683,-0.0663,-0.0629,-0.0622,-0.0619,-0.0542,-0.0657,-0.0657,-0.0657,-0.0657,-0.061,-0.0626,-0.0644,-0.0679,-0.0687,-0.0687,-0.0675,-0.0671,-0.0629,-0.0639,-0.0625,-0.0639,-0.0615,-0.0534,-0.0657,-0.0657,-0.0657,-0.0657,-0.0657,-0.0579,-0.0594,-0.0612,-0.0638,-0.064,-0.0657,-0.0645,-0.0632,-0.0612,-0.0599,-0.0586,-0.0586,-0.0521,-0.0594,-0.0593,-0.0593,-0.0593,-0.0593,-0.0593,-0.0544,-0.0565,-0.0572,-0.0601,-0.0615,-0.0627,-0.0626,-0.0615,-0.0583,-0.0567,-0.0567,-0.0493,-0.0609,-0.0618,-0.0591,-0.0591,-0.0591,-0.0592,-0.0592,-0.054,-0.0531,-0.0543,-0.0555,-0.0594,-0.0625,-0.063,-0.0607,-0.0571,-0.0548,-0.0432,-0.0546,-0.0543,-0.0546,-0.0553,-0.051,-0.051,-0.051,-0.051,-0.0517,-0.0519,-0.0515,-0.0535,-0.0574,-0.0622,-0.0645,-0.0607,-0.0474,-0.0382,-0.0355,-0.036,-0.0366,-0.0353,-0.0361,-0.0364,-0.0274,-0.0273,-0.0273,-0.0505,-0.0501,-0.0493,-0.0512,-0.057,-0.0633,-0.0666,-0.0599,-0.0365,-0.0256,-0.0248,-0.0258,-0.026,-0.0276,-0.0255,-0.0271,-0.0277,0,0]}],[{"header":{"parameterUnit":"m.s-1","parameterCategory":2,"la1":30.2992,"la2":30.254,"lo1":-89.0895,"lo2":-89.0443,"dy":0.0025,"dx":0.0025,"nx":19,"ny":19,"refTime":"2026-05-13T03:00:00:Z","depth":"2","parameterNumber":2,"parameterNumberName":"U-component_of_CURRENTS"},"data":[0,0,0,-0.122,-0.1222,-0.1301,-0.1301,-0.1366,-0.1366,0,0,0,0,0,0,0,0,0,0,0,-0.1186,-0.1187,-0.122,-0.1222,-0.1301,-0.1301,-0.1365,-0.1366,0,0,0,0,0,0,0,0,0,0,0,-0.1186,-0.1187,-0.1187,-0.1222,-0.1301,-0.1301,-0.1365,-0.1316,0,0,0,0,0,0,0,0,0,0,-0.1244,-0.1221,-0.1186,-0.1187,-0.1222,-0.1301,-0.1301,-0.1314,-0.1319,-0.1318,0,-0.1325,0,-0.1347,-0.1369,-0.1369,0,0,0,-0.1226,-0.1217,-0.1234,-0.1187,-0.1223,-0.13,-0.1266,-0.1317,-0.1323,-0.1324,-0.1326,-0.1329,-0.1348,-0.1369,-0.137,-0.1418,-0.1418,0,0,-0.1222,-0.1207,-0.123,-0.1237,-0.1236,-0.1264,-0.1269,-0.1321,-0.1325,-0.1326,-0.1331,-0.1349,-0.137,-0.137,-0.1418,-0.1418,0,0,0,-0.1206,-0.1204,-0.122,-0.1234,-0.1252,-0.1266,-0.1272,-0.1323,-0.1327,-0.1332,-0.135,-0.137,-0.137,-0.1418,-0.1418,-0.142,0,0,0,-0.1204,-0.1194,-0.1218,-0.1211,-0.1251,-0.1295,-0.1272,-0.1323,-0.133,-0.135,-0.137,-0.1371,-0.1418,-0.1418,-0.142,-0.1405,0,0,0,-0.1184,-0.1193,-0.1198,-0.121,-0.1242,-0.1295,-0.1303,-0.1326,-0.1341,-0.1369,-0.1371,-0.1417,-0.1418,-0.1419,-0.1405,-0.1382,0,0,0,-0.1171,-0.1214,-0.1198,-0.1254,-0.1242,-0.1311,-0.1303,-0.1353,-0.138,-0.137,-0.1418,-0.1418,-0.1419,-0.1405,-0.1382,-0.1376,-0.1374,0,0,-0.1226,-0.122,-0.1256,-0.1244,-0.1309,-0.1301,-0.1358,-0.1381,-0.1383,-0.1398,-0.14,-0.142,-0.1405,-0.1382,-0.1402,-0.1399,0,0,0,-0.1276,-0.1289,-0.1311,-0.1338,-0.1373,-0.1376,-0.1402,-0.1401,-0.1413,-0.14,-0.1428,-0.1419,-0.1404,-0.1402,-0.14,-0.142,-0.142,-0.142,-0.142,-0.1315,-0.1333,-0.1372,-0.1387,-0.1416,-0.1432,-0.1435,-0.143,-0.144,-0.1438,-0.1428,-0.142,-0.1419,-0.1417,-0.1444,-0.1444,-0.1444,-0.1444,-0.1444,-0.1361,-0.1366,-0.1377,-0.1418,-0.1413,-0.144,-0.1445,-0.1441,-0.1429,-0.1438,-0.1424,-0.1413,-0.1415,-0.1444,-0.1444,-0.1444,-0.1444,-0.1444,-0.1444,-0.1351,-0.135,-0.1373,-0.1391,-0.1399,-0.1415,-0.1406,-0.1412,-0.1416,-0.1408,-0.1391,-0.1391,-0.1399,-0.1399,-0.1398,-0.1398,-0.1398,-0.1398,-0.1398,-0.1311,-0.1334,-0.1336,-0.1357,-0.1352,-0.1354,-0.1371,-0.1374,-0.1375,-0.138,-0.138,-0.1404,-0.1405,-0.1396,-0.1396,-0.1396,-0.1396,-0.1397,-0.1397,-0.1272,-0.1287,-0.1282,-0.1279,-0.1276,-0.1251,-0.1301,-0.1326,-0.1332,-0.1332,-0.1362,-0.1363,-0.1353,-0.1356,-0.1346,-0.1332,-0.1332,-0.1332,-0.1332,-0.1231,-0.1244,-0.1217,-0.1197,-0.1188,-0.1197,-0.1169,-0.1156,-0.1206,-0.118,-0.1186,-0.1196,-0.1204,-0.1185,-0.1191,-0.1178,-0.112,-0.1119,-0.1119,-0.1186,-0.1188,-0.1144,-0.1148,-0.1137,-0.1133,-0.1062,-0.0974,-0.0986,-0.1104,-0.1085,-0.133,-0.1365,-0.1368,-0.1357,-0.1361,-0.1346,0,0]},{"header":{"parameterUnit":"m.s-1","parameterCategory":2,"la1":30.2992,"la2":30.254,"lo1":-89.0895,"lo2":-89.0443,"dy":0.0025,"dx":0.0025,"nx":19,"ny":19,"refTime":"2026-05-13T03:00:00:Z","depth":"2","parameterNumber":3,"parameterNumberName":"V-component_of_CURRENTS"},"data":[0,0,0,-0.033,-0.0332,-0.0441,-0.0441,-0.0473,-0.0473,0,0,0,0,0,0,0,0,0,0,0,-0.0286,-0.0286,-0.033,-0.0332,-0.044,-0.0441,-0.0473,-0.0473,0,0,0,0,0,0,0,0,0,0,0,-0.0285,-0.0286,-0.0287,-0.0333,-0.044,-0.0441,-0.0473,-0.0418,0,0,0,0,0,0,0,0,0,0,-0.0326,-0.0309,-0.0286,-0.0287,-0.0333,-0.044,-0.0441,-0.0417,-0.0421,-0.0394,0,-0.0411,0,-0.0444,-0.0473,-0.0473,0,0,0,-0.0332,-0.0306,-0.0327,-0.0287,-0.0334,-0.044,-0.0392,-0.042,-0.0425,-0.04,-0.0412,-0.0414,-0.0444,-0.0473,-0.0473,-0.0465,-0.0465,0,0,-0.0326,-0.0312,-0.0323,-0.033,-0.0361,-0.0388,-0.0395,-0.0425,-0.0431,-0.0412,-0.0416,-0.0445,-0.0473,-0.0473,-0.0465,-0.0465,0,0,0,-0.0309,-0.0307,-0.033,-0.0328,-0.0357,-0.0391,-0.0399,-0.043,-0.0436,-0.0416,-0.0445,-0.0473,-0.0473,-0.0465,-0.0465,-0.047,0,0,0,-0.0306,-0.0297,-0.0327,-0.0321,-0.0357,-0.0412,-0.0404,-0.0434,-0.0439,-0.0445,-0.0473,-0.0473,-0.0465,-0.0465,-0.047,-0.0469,0,0,0,-0.0281,-0.0295,-0.0306,-0.0319,-0.0367,-0.0413,-0.0421,-0.0436,-0.0455,-0.0473,-0.0473,-0.0465,-0.0465,-0.047,-0.0469,-0.0454,0,0,0,-0.0264,-0.0305,-0.0305,-0.0357,-0.0366,-0.0429,-0.0422,-0.0475,-0.0495,-0.0473,-0.0465,-0.0465,-0.047,-0.0469,-0.0454,-0.0434,-0.0431,0,0,-0.031,-0.031,-0.034,-0.0344,-0.0404,-0.0414,-0.0458,-0.0482,-0.0476,-0.0448,-0.0449,-0.047,-0.0469,-0.0454,-0.0426,-0.0424,0,0,0,-0.0351,-0.0363,-0.0385,-0.0417,-0.0455,-0.0467,-0.0495,-0.0487,-0.0481,-0.0488,-0.0466,-0.0465,-0.0455,-0.0444,-0.0442,-0.0465,-0.0465,-0.0465,-0.0465,-0.0363,-0.0386,-0.0428,-0.0452,-0.048,-0.0504,-0.0506,-0.049,-0.0489,-0.048,-0.0466,-0.0454,-0.0442,-0.044,-0.0464,-0.0464,-0.0464,-0.0464,-0.0464,-0.0398,-0.0419,-0.0432,-0.0479,-0.0482,-0.0502,-0.0494,-0.049,-0.0461,-0.0462,-0.0452,-0.0446,-0.0438,-0.0465,-0.0465,-0.0465,-0.0465,-0.0465,-0.0465,-0.0391,-0.0407,-0.0427,-0.0465,-0.048,-0.0495,-0.0493,-0.0481,-0.046,-0.0452,-0.0429,-0.0429,-0.0452,-0.0446,-0.0446,-0.0446,-0.0446,-0.0446,-0.0446,-0.0376,-0.04,-0.0415,-0.0453,-0.047,-0.0487,-0.049,-0.048,-0.0448,-0.0428,-0.0427,-0.0447,-0.0448,-0.045,-0.0445,-0.0445,-0.0445,-0.0445,-0.0445,-0.0392,-0.0379,-0.0404,-0.0421,-0.0466,-0.0497,-0.0501,-0.0477,-0.0448,-0.0424,-0.0407,-0.0408,-0.0401,-0.0403,-0.0403,-0.0386,-0.0386,-0.0386,-0.0386,-0.0377,-0.0381,-0.0388,-0.0413,-0.0456,-0.0499,-0.0514,-0.0464,-0.0402,-0.0348,-0.035,-0.0355,-0.0358,-0.0348,-0.0351,-0.0351,-0.032,-0.032,-0.032,-0.0376,-0.0373,-0.0374,-0.0397,-0.0456,-0.051,-0.0527,-0.0443,-0.0315,-0.0318,-0.0342,-0.0381,-0.0393,-0.0396,-0.0386,-0.0389,-0.0391,0,0]}],[{"header":{"parameterUnit":"m.s-1","parameterCategory":2,"la1":30.2992,"la2":30.254,"lo1":-89.0895,"lo2":-89.0443,"dy":0.0025,"dx":0.0025,"nx":19,"ny":19,"refTime":"2026-05-13T03:00:00:Z","depth":"4","parameterNumber":2,"parameterNumberName":"U-component_of_CURRENTS"},"data":[0,0,0,-0.0599,-0.0602,-0.0777,-0.0778,-0.1042,-0.1044,0,0,0,0,0,0,0,0,0,0,0,-0.0573,-0.0574,-0.0599,-0.0602,-0.0777,-0.0778,-0.1042,-0.1044,0,0,0,0,0,0,0,0,0,0,0,-0.0572,-0.0574,-0.0575,-0.0602,-0.0777,-0.0779,-0.1041,-0.0909,0,0,0,0,0,0,0,0,0,0,-0.0738,-0.069,-0.0573,-0.0575,-0.0603,-0.0777,-0.0779,-0.0903,-0.0917,-0.0961,0,-0.099,0,-0.0991,-0.1059,-0.1059,0,0,0,-0.0643,-0.0678,-0.0715,-0.0575,-0.0604,-0.0776,-0.071,-0.0911,-0.0927,-0.098,-0.0993,-0.1002,-0.0996,-0.106,-0.1061,-0.1271,-0.1272,0,0,-0.0633,-0.0618,-0.0703,-0.0725,-0.0653,-0.0704,-0.0714,-0.0921,-0.0946,-0.0994,-0.1007,-0.1,-0.1061,-0.1063,-0.127,-0.1271,0,0,0,-0.0578,-0.0611,-0.0644,-0.0715,-0.0727,-0.0708,-0.072,-0.0938,-0.0946,-0.101,-0.1003,-0.1063,-0.1065,-0.127,-0.1271,-0.126,0,0,0,-0.0574,-0.0575,-0.064,-0.0634,-0.0722,-0.0825,-0.0733,-0.0934,-0.0955,-0.1002,-0.1063,-0.1068,-0.1269,-0.127,-0.1259,-0.1213,0,0,0,-0.0564,-0.0574,-0.0593,-0.0633,-0.0685,-0.0822,-0.0845,-0.0939,-0.0949,-0.106,-0.1068,-0.1268,-0.127,-0.1258,-0.1213,-0.1184,0,0,0,-0.0544,-0.0572,-0.0594,-0.0628,-0.0682,-0.0769,-0.0844,-0.0972,-0.1072,-0.1064,-0.1269,-0.1271,-0.1257,-0.1213,-0.1184,-0.0968,0,0,0,-0.0558,-0.0574,-0.0591,-0.0612,-0.0659,-0.0747,-0.0869,-0.1054,-0.1104,-0.1209,-0.1215,-0.1259,-0.1213,-0.1184,-0.1063,0,0,0,0,-0.058,-0.0597,-0.0611,-0.0654,-0.0715,-0.0829,-0.0987,-0.1058,-0.1206,-0.1159,-0.1294,-0.1265,-0.1246,-0.1125,-0.1278,-0.1278,-0.1278,-0.1278,-0.1277,-0.0586,-0.061,-0.0639,-0.0694,-0.0767,-0.0932,-0.1028,-0.1163,-0.1225,-0.1294,-0.1284,-0.1287,-0.1164,-0.1338,-0.1338,-0.1338,-0.1338,-0.1338,-0.1338,-0.0584,-0.0597,-0.0662,-0.0711,-0.0829,-0.0977,-0.1121,-0.1204,-0.1269,-0.1313,-0.1297,-0.1158,-0.1338,-0.1338,-0.1338,-0.1338,-0.1338,-0.1338,-0.1338,-0.0562,-0.0572,-0.0621,-0.0697,-0.0851,-0.1014,-0.1093,-0.1199,-0.1246,-0.1235,-0.1098,-0.1264,-0.123,-0.1235,-0.1235,-0.1235,-0.1235,-0.1234,-0.1234,-0.0521,-0.0556,-0.0583,-0.068,-0.0755,-0.0887,-0.1056,-0.1061,-0.1123,-0.1035,-0.1221,-0.1251,-0.1255,-0.1225,-0.123,-0.123,-0.1231,-0.1231,-0.1232,-0.0492,-0.0502,-0.0507,-0.0547,-0.065,-0.0713,-0.0868,-0.0871,-0.0828,-0.0761,-0.0928,-0.0944,-0.0912,-0.0923,-0.088,-0.0782,-0.0779,-0.0776,0,-0.0462,-0.0467,-0.0451,-0.0449,-0.0457,-0.0597,-0.0514,-0.0563,-0.0643,-0.0626,-0.0816,-0.1008,-0.1019,-0.0988,-0.0993,-0.0944,0,0,0,-0.0443,-0.0434,-0.0404,-0.0392,-0.0391,-0.0403,-0.05,-0.0481,-0.0634,-0.0545,-0.0705,-0.0723,-0.0995,-0.1216,-0.1204,-0.1208,-0.1158,0,0]},{"header":{"parameterUnit":"m.s-1","parameterCategory":2,"la1":30.2992,"la2":30.254,"lo1":-89.0895,"lo2":-89.0443,"dy":0.0025,"dx":0.0025,"nx":19,"ny":19,"refTime":"2026-05-13T03:00:00:Z","depth":"4","parameterNumber":3,"parameterNumberName":"V-component_of_CURRENTS"},"data":[0,0,0,0.0267,0.0267,0.0339,0.034,0.0433,0.0433,0,0,0,0,0,0,0,0,0,0,0,0.0255,0.0256,0.0266,0.0267,0.0339,0.034,0.0432,0.0433,0,0,0,0,0,0,0,0,0,0,0,0.0255,0.0256,0.0256,0.0268,0.0339,0.034,0.0432,0.0383,0,0,0,0,0,0,0,0,0,0,0.0315,0.0296,0.0256,0.0256,0.0268,0.0339,0.034,0.038,0.0386,0.0394,0,0.0404,0,0.0406,0.0438,0.0438,0,0,0,0.0287,0.0292,0.0306,0.0256,0.0268,0.0339,0.0312,0.0383,0.0389,0.0401,0.0405,0.0408,0.0408,0.0438,0.0438,0.0446,0.0445,0,0,0.0283,0.0275,0.0302,0.031,0.0285,0.031,0.0314,0.0387,0.0396,0.0406,0.041,0.0409,0.0438,0.0439,0.0446,0.0446,0,0,0,0.0258,0.0272,0.0285,0.0306,0.0311,0.0311,0.0317,0.0393,0.0396,0.0411,0.041,0.0439,0.044,0.0447,0.0446,0.0386,0,0,0,0.0257,0.0256,0.0283,0.028,0.031,0.0351,0.0321,0.0392,0.0399,0.041,0.0439,0.044,0.0447,0.0446,0.0388,0.0337,0,0,0,0.0252,0.0256,0.0262,0.028,0.03,0.035,0.0359,0.0394,0.0397,0.0438,0.044,0.0447,0.0447,0.0391,0.0342,0.0314,0,0,0,0.0244,0.0236,0.0263,0.0248,0.0299,0.0295,0.0358,0.0388,0.042,0.0439,0.0447,0.0446,0.0392,0.0345,0.0317,0.0269,0,0,0,0.0221,0.0233,0.022,0.0244,0.0209,0.0287,0.0271,0.0357,0.0405,0.0428,0.0429,0.0388,0.0342,0.0315,0.0212,0,0,0,0,0.0203,0.0192,0.0186,0.0177,0.0189,0.0199,0.028,0.0314,0.0365,0.0415,0.0384,0.0357,0.0342,0.0323,0.0441,0.0441,0.0442,0.0442,0.0442,0.016,0.0152,0.0113,0.0106,0.0106,0.0153,0.0174,0.0235,0.0307,0.0321,0.0307,0.0239,0.0215,0.032,0.0319,0.0319,0.0319,0.0319,0.0319,0.0093,0.0058,0.0051,0.0014,0.0021,0.0028,0.0081,0.0144,0.0174,0.0238,0.0229,0.0258,0.0313,0.0314,0.0315,0.0315,0.0316,0.0316,0.0316,0.0047,0.0025,0.0012,-0.0043,-0.0067,-0.0034,-0.0051,0.0024,0.0102,0.0094,0.0104,0.0191,0.0198,0.0112,0.0112,0.0112,0.0111,0.0111,0.0111,0.0003,-0.0018,-0.0059,-0.0105,-0.0129,-0.0144,-0.0117,-0.0111,-0.0033,0.0005,0.0084,0.0169,0.0176,0.0186,0.0105,0.0106,0.0107,0.0107,0.0108,-0.0076,-0.0059,-0.0123,-0.0155,-0.0225,-0.0239,-0.0223,-0.0213,-0.0212,-0.0195,-0.0035,-0.0026,-0.0012,-0.0001,0.0005,-0.0133,-0.0134,-0.0135,0,-0.0114,-0.0117,-0.018,-0.0238,-0.0301,-0.0299,-0.0324,-0.032,-0.0238,-0.0202,-0.0201,-0.0018,-0.0011,0.0009,0.0017,0.0023,0,0,0,-0.0168,-0.0167,-0.022,-0.026,-0.033,-0.0334,-0.0329,-0.0324,-0.0223,-0.0289,-0.0159,-0.0153,-0.0085,0.0089,0.0132,0.014,0.0158,0,0]}]]